[[{"header":{"parameterUnit":"m.s-1","parameterCategory":2,"la1":30.2991,"la2":30.254,"lo1":-89.0895,"lo2":-89.0444,"dy":0.0017,"dx":0.0017,"nx":28,"ny":28,"refTime":"2025-11-11T09:00:00:Z","depth":"0","parameterNumber":2,"parameterNumberName":"U-component_of_CURRENTS"},"data":[0,0,0,0,0,0,0,0,0,0,0,0,0,0,0,0,0,0,0,0,0,0,0,0,0,0,0,0,0,0,0,0,0,0,0,0,0,0,0,0,0,0,0,0,0,0,0,0,0,0,0,0,0,0,0,0,0,0,0.4634,0.4635,0,0.4633,0.4633,0.4632,0.4598,0.4597,0.4597,0.4596,0.4563,0.4563,0.4562,0,0,0,0,0,0,0,0,0,0,0,0,0,0.4582,0.4582,0.4634,0.4635,0.4635,0.4633,0.4633,0.4632,0.4598,0.4597,0.4597,0.4596,0.4563,0.4563,0.4562,0,0,0,0,0,0,0,0,0,0,0,0,0,0.459,0.4583,0.4634,0.4622,0.4621,0.4633,0.4632,0.4632,0.4598,0.4597,0.4597,0.4596,0.4564,0.4563,0.4562,0.457,0,0,0.456,0.456,0,0,0,0,0,0,0,0,0.459,0.4591,0.4623,0.4623,0.4622,0.4619,0.4602,0.4611,0.4598,0.4601,0.4596,0.4596,0.4583,0.4581,0.4575,0.4569,0.4567,0.456,0.4559,0.4559,0.4559,0,0,0,0,0,0,0,0.4589,0.4591,0.4629,0.4624,0.4623,0.4608,0.4608,0.4603,0.4591,0.4601,0.46,0.4608,0.4582,0.4576,0.4574,0.4567,0.456,0.4559,0.4559,0.4559,0.4577,0.4578,0,0,0,0,0,0,0.4602,0.4591,0.4629,0.4629,0.461,0.461,0.4609,0.4617,0.4592,0.4589,0.4608,0.4606,0.4577,0.4575,0.4573,0.4584,0.4559,0.4558,0.4558,0.4576,0.4577,0.4578,0,0,0,0,0,0,0.4601,0.4605,0.4629,0.4614,0.4616,0.4612,0.462,0.4617,0.4612,0.4599,0.4594,0.4607,0.4577,0.4574,0.4574,0.4582,0.4558,0.4557,0.4575,0.4577,0.4578,0.4605,0,0,0,0,0,0,0.4599,0.4605,0.4609,0.4615,0.4618,0.4638,0.4621,0.4618,0.462,0.4617,0.4596,0.4592,0.4576,0.4575,0.4573,0.4581,0.4557,0.4574,0.4576,0.4578,0.4603,0.4607,0.461,0,0,0,0,0,0.4597,0.4599,0.4609,0.4614,0.4626,0.4639,0.4639,0.463,0.4621,0.4621,0.461,0.4593,0.4585,0.4575,0.4573,0.458,0.4573,0.4575,0.4577,0.4601,0.4606,0.461,0,0,0,0,0,0,0.4571,0.4597,0.4607,0.4616,0.4633,0.4635,0.4632,0.4635,0.4626,0.462,0.4603,0.4599,0.4603,0.4593,0.4583,0.4593,0.4577,0.4579,0.4596,0.4601,0.4605,0.4584,0.4556,0,0,0,0,0,0.4574,0.4582,0.461,0.4616,0.4625,0.4633,0.4636,0.4638,0.4636,0.4631,0.4617,0.4609,0.461,0.4606,0.4601,0.4607,0.4621,0.4612,0.4616,0.4619,0.4602,0.4652,0.4659,0.4585,0.4585,0.4585,0,0,0.4562,0.458,0.4583,0.4612,0.4618,0.4626,0.463,0.4639,0.4638,0.463,0.4613,0.4621,0.4616,0.462,0.4621,0.4611,0.4653,0.4622,0.4624,0.4605,0.4655,0.4663,0.4669,0.4587,0.4587,0.4586,0,0,0.4548,0.4565,0.4571,0.4585,0.4612,0.462,0.4628,0.4639,0.4635,0.4638,0.4635,0.4648,0.4637,0.4641,0.4641,0.4666,0.4674,0.467,0.4668,0.4718,0.4725,0.473,0.4778,0.4787,0.467,0.467,0.467,0,0.4535,0.455,0.4573,0.4584,0.4591,0.4618,0.4625,0.4626,0.4634,0.4638,0.4632,0.4645,0.4644,0.466,0.4666,0.4672,0.4703,0.465,0.4723,0.4729,0.4734,0.4781,0.4791,0.4672,0.4671,0.4671,0.4671,0,0.4529,0.454,0.4541,0.4564,0.4576,0.4586,0.4605,0.4614,0.4619,0.4626,0.4644,0.4653,0.4664,0.4674,0.4671,0.4711,0.4723,0.4726,0.471,0.4743,0.4791,0.4801,0.4674,0.4673,0.4673,0.4672,0,0,0.4498,0.4533,0.4531,0.4536,0.4569,0.4571,0.4584,0.4605,0.461,0.4625,0.4636,0.4651,0.4671,0.4673,0.469,0.4723,0.4797,0.4737,0.4739,0.478,0.4915,0.4827,0.483,0.4821,0.4823,0.4824,0.4941,0,0.4487,0.4492,0.4521,0.4518,0.4519,0.4554,0.456,0.4581,0.4601,0.4617,0.4646,0.4661,0.4668,0.4686,0.4723,0.4773,0.4822,0.4765,0.4878,0.4881,0.4796,0.4837,0.4524,0.4593,0.4951,0.4952,0.4954,0,0.4473,0.4475,0.4472,0.4493,0.4498,0.4502,0.4525,0.454,0.4581,0.4601,0.4638,0.4663,0.4712,0.4716,0.4821,0.4788,0.4851,0.4891,0.4897,0.4802,0.481,0.4614,0.4598,0.4417,0.4969,0.4968,0.4967,0,0.442,0.4441,0.4432,0.4435,0.4463,0.4469,0.4491,0.4529,0.4544,0.4599,0.4618,0.4683,0.4712,0.4798,0.4866,0.4863,0.4977,0.4992,0.4977,0.4973,0.4716,0.4686,0.4525,0.5079,0.5079,0.5079,0.5078,0,0.4391,0.438,0.4402,0.4389,0.4376,0.4422,0.4425,0.4461,0.4518,0.4538,0.4606,0.4637,0.4734,0.4803,0.4882,0.4943,0.5002,0.4973,0.4993,0.4719,0.4689,0.4528,0.4507,0.5083,0.5082,0.5081,0.508,0,0.4322,0.4348,0.4324,0.4341,0.4347,0.4329,0.4376,0.4381,0.4455,0.4489,0.451,0.4611,0.4712,0.48,0.4937,0.4943,0.4871,0.5042,0.4707,0.4683,0.4483,0.4477,0.432,0.4216,0.5048,0.5046,0.5045,0,0.4273,0.4262,0.4257,0.4229,0.4231,0.4229,0.4232,0.4326,0.4348,0.447,0.448,0.4594,0.4636,0.478,0.4805,0.4901,0.4821,0.4685,0.4615,0.4414,0.4424,0.4347,0.4267,0.4305,0.4298,0.4292,0.4287,0,0.4165,0.4174,0.4152,0.4093,0.4079,0.408,0.4107,0.4135,0.4255,0.4288,0.4364,0.4414,0.4527,0.4453,0.455,0.458,0.4399,0.457,0.4429,0.3876,0.3711,0.3636,0.431,0.4234,0.424,0.4244,0.4246,0.4249,0.4061,0.4015,0.3978,0.3922,0.3911,0.3907,0.3865,0.3926,0.3954,0.3963,0.4157,0.411,0.4118,0.4192,0.4203,0.3937,0.4107,0.379,0.3823,0.3782,0.3575,0.4139,0.4045,0.4049,0.4052,0.4056,0.4058,0,0.388,0.3854,0.3799,0.3723,0.3653,0.3705,0.3739,0.367,0.3636,0.3707,0.3719,0.3609,0.3494,0.3493,0.3298,0.3163,0.3067,0.3073,0.2837,0.2822,0.334,0.3192,0.2822,0.2822,0.2822,0.2822,0.2822,0.2823,0.3765,0.3658,0.364,0.3468,0.342,0.3291,0.3279,0.3223,0.3232,0.3079,0.2955,0.2973,0.2977,0.2832,0.2577,0.2519,0.2376,0.2246,0.2396,0.2673,0.2739,0.2803,0.2651,0.2173,0.2173,0.1657,0.1653,0.165]},{"header":{"parameterUnit":"m.s-1","parameterCategory":2,"la1":30.2991,"la2":30.254,"lo1":-89.0895,"lo2":-89.0444,"dy":0.0017,"dx":0.0017,"nx":28,"ny":28,"refTime":"2025-11-11T09:00:00:Z","depth":"0","parameterNumber":3,"parameterNumberName":"V-component_of_CURRENTS"},"data":[0,0,0,0,0,0,0,0,0,0,0,0,0,0,0,0,0,0,0,0,0,0,0,0,0,0,0,0,0,0,0,0,0,0,0,0,0,0,0,0,0,0,0,0,0,0,0,0,0,0,0,0,0,0,0,0,0,0,-0.0509,-0.0509,0,-0.0534,-0.0534,-0.0535,-0.0541,-0.0541,-0.0541,-0.0541,-0.0579,-0.058,-0.0581,0,0,0,0,0,0,0,0,0,0,0,0,0,-0.0474,-0.0475,-0.0509,-0.0509,-0.051,-0.0534,-0.0534,-0.0535,-0.0541,-0.0541,-0.0541,-0.0541,-0.0579,-0.058,-0.0582,0,0,0,0,0,0,0,0,0,0,0,0,0,-0.0493,-0.0475,-0.0509,-0.0516,-0.0517,-0.0534,-0.0534,-0.0535,-0.0541,-0.0541,-0.0541,-0.0541,-0.0578,-0.058,-0.0582,-0.0596,0,0,-0.0587,-0.0588,0,0,0,0,0,0,0,0,-0.0492,-0.0494,-0.0515,-0.0516,-0.0517,-0.0535,-0.0536,-0.0556,-0.0541,-0.0532,-0.0541,-0.0541,-0.0566,-0.0569,-0.0573,-0.0598,-0.0599,-0.0587,-0.0588,-0.0589,-0.0589,0,0,0,0,0,0,0,-0.049,-0.0493,-0.0519,-0.0515,-0.0516,-0.0521,-0.0523,-0.054,-0.0549,-0.0533,-0.0533,-0.0537,-0.0567,-0.0571,-0.0574,-0.06,-0.0587,-0.0589,-0.059,-0.059,-0.0612,-0.0611,0,0,0,0,0,0,-0.0488,-0.0492,-0.0518,-0.0519,-0.0504,-0.0522,-0.0524,-0.0529,-0.0549,-0.0552,-0.0537,-0.0537,-0.0569,-0.0572,-0.0575,-0.0562,-0.0589,-0.059,-0.0591,-0.0612,-0.0612,-0.0611,0,0,0,0,0,0,-0.0487,-0.049,-0.0517,-0.0506,-0.051,-0.0522,-0.0528,-0.0529,-0.0532,-0.0552,-0.0555,-0.0537,-0.0569,-0.0573,-0.0582,-0.0565,-0.0591,-0.0593,-0.0613,-0.0612,-0.0612,-0.0555,0,0,0,0,0,0,-0.0486,-0.049,-0.0493,-0.0506,-0.0511,-0.0523,-0.0528,-0.053,-0.0535,-0.0535,-0.0554,-0.0557,-0.0569,-0.0579,-0.0583,-0.0567,-0.0594,-0.0613,-0.0613,-0.0612,-0.0557,-0.0552,-0.0548,0,0,0,0,0,-0.0485,-0.0494,-0.0493,-0.0496,-0.0515,-0.0523,-0.0526,-0.0534,-0.0535,-0.0535,-0.0543,-0.0557,-0.0577,-0.058,-0.0585,-0.0569,-0.0614,-0.0613,-0.0612,-0.0559,-0.0553,-0.0548,0,0,0,0,0,0,-0.0488,-0.0496,-0.0495,-0.0508,-0.0511,-0.0524,-0.053,-0.0532,-0.0539,-0.054,-0.0555,-0.0559,-0.0559,-0.0576,-0.0579,-0.0574,-0.0596,-0.0596,-0.0554,-0.0549,-0.0545,-0.0513,-0.0595,0,0,0,0,0,-0.0488,-0.0493,-0.0499,-0.0509,-0.0511,-0.0518,-0.0523,-0.0526,-0.0534,-0.0537,-0.0547,-0.0557,-0.056,-0.0564,-0.0575,-0.0576,-0.0574,-0.0569,-0.0564,-0.056,-0.0538,-0.052,-0.0511,-0.0608,-0.0608,-0.0608,0,0,-0.0494,-0.0498,-0.0501,-0.0509,-0.0514,-0.0505,-0.0521,-0.0527,-0.0511,-0.0541,-0.0529,-0.0546,-0.0558,-0.0553,-0.0554,-0.0564,-0.0534,-0.0559,-0.0555,-0.0535,-0.0518,-0.0508,-0.05,-0.0607,-0.0607,-0.0608,0,0,-0.0497,-0.0508,-0.0505,-0.0502,-0.0505,-0.0505,-0.0504,-0.0511,-0.0505,-0.0503,-0.051,-0.0507,-0.0531,-0.0517,-0.0518,-0.0495,-0.0512,-0.0512,-0.0459,-0.0443,-0.0434,-0.0426,-0.0419,-0.0411,-0.0507,-0.0507,-0.0507,0,-0.05,-0.0491,-0.0507,-0.0496,-0.0478,-0.05,-0.0474,-0.0479,-0.0484,-0.046,-0.0494,-0.0481,-0.0504,-0.046,-0.0458,-0.0481,-0.0483,-0.0478,-0.0435,-0.0427,-0.042,-0.0414,-0.0405,-0.0504,-0.0504,-0.0505,-0.0505,0,-0.0491,-0.0478,-0.0477,-0.0459,-0.0448,-0.0436,-0.043,-0.0418,-0.042,-0.0412,-0.0383,-0.0411,-0.0396,-0.0409,-0.0432,-0.0386,-0.0408,-0.0432,-0.0444,-0.0406,-0.0403,-0.0395,-0.05,-0.0501,-0.0502,-0.0503,0,0,-0.0494,-0.0472,-0.0466,-0.0422,-0.0416,-0.039,-0.0368,-0.0326,-0.0276,-0.0307,-0.0241,-0.0268,-0.0283,-0.0284,-0.0309,-0.0301,-0.0271,-0.0348,-0.0348,-0.033,-0.0241,-0.0231,-0.0222,-0.0292,-0.0291,-0.0289,-0.0261,0,-0.0468,-0.0417,-0.0419,-0.0348,-0.0306,-0.0299,-0.026,-0.0227,-0.0214,-0.0168,-0.0186,-0.0158,-0.0236,-0.0226,-0.0231,-0.0253,-0.0247,-0.0276,-0.0287,-0.0287,-0.0274,-0.0211,-0.0174,-0.0142,-0.0253,-0.0252,-0.0251,0,-0.0439,-0.0397,-0.0328,-0.0235,-0.0216,-0.0186,-0.0085,-0.0059,-0.0018,-0.0007,0.0002,-0.0022,-0.0013,-0.0092,-0.0109,-0.0129,-0.0178,-0.0206,-0.0207,-0.0205,-0.0261,-0.0197,-0.0125,-0.0249,-0.024,-0.0241,-0.0242,0,-0.0378,-0.0316,-0.0244,-0.0219,-0.0146,-0.0097,-0.0059,-0.0004,0.0048,0.009,0.0127,0.0119,0.0121,0.0066,-0.0022,-0.0064,-0.0037,-0.0102,-0.0134,-0.0135,-0.0105,-0.0105,-0.014,-0.0102,-0.0102,-0.0102,-0.0102,0,-0.0325,-0.0257,-0.0207,-0.0159,-0.0042,-0.0026,0.0086,0.0124,0.0173,0.0258,0.0205,0.0269,0.0157,0.0144,0.0047,-0.0006,0.0012,-0.0095,-0.0112,-0.0087,-0.0086,-0.0196,-0.028,-0.0101,-0.0101,-0.0102,-0.0102,0,-0.0258,-0.0241,-0.0132,-0.0045,-0.0011,0.0076,0.0168,0.0244,0.0268,0.0373,0.0386,0.0387,0.0381,0.0279,0.0211,0.0097,-0.0008,0.0012,0.0046,0.0033,-0.013,-0.0211,-0.0236,-0.0262,-0.0014,-0.0013,-0.0013,0,-0.0212,-0.0157,-0.004,0.0032,0.0074,0.018,0.0254,0.0294,0.0365,0.0463,0.0525,0.0542,0.0604,0.0505,0.0335,0.0207,0.0056,0.0104,0.0032,-0.0101,-0.0205,-0.0268,-0.0292,0.0085,0.0087,0.0088,0.0089,0,-0.0096,-0.0067,0.0017,0.0142,0.0235,0.0345,0.0441,0.0508,0.0566,0.0665,0.0789,0.0851,0.0765,0.0679,0.0478,0.0356,0.0038,0.012,-0.0016,-0.0111,-0.018,-0.0225,0.001,0.0098,0.0097,0.0096,0.0096,0.0096,0.0,0.0074,0.0162,0.028,0.0383,0.05,0.0592,0.07,0.0839,0.1006,0.1021,0.1182,0.0965,0.0726,0.0529,0.0151,0.0129,0.0013,-0.0069,-0.0116,-0.015,0.0106,0.0169,0.0168,0.0168,0.0167,0.0167,0,0.0133,0.0187,0.0301,0.0434,0.054,0.0566,0.0713,0.0808,0.0993,0.1209,0.1347,0.1379,0.1132,0.0791,0.0274,0.0002,-0.01,-0.0163,-0.0254,-0.0266,-0.0027,-0.0035,-0.0014,-0.0014,-0.0014,-0.0014,-0.0014,-0.0013,0.0211,0.0322,0.0351,0.0534,0.0619,0.0752,0.0832,0.0995,0.1169,0.1462,0.1619,0.1703,0.1404,0.0487,-0.0119,-0.0246,-0.0438,-0.0466,-0.0567,-0.0442,-0.0433,-0.0424,-0.045,-0.0517,-0.0518,-0.0749,-0.0751,-0.0754]}],[{"header":{"parameterUnit":"m.s-1","parameterCategory":2,"la1":30.2991,"la2":30.254,"lo1":-89.0895,"lo2":-89.0444,"dy":0.0017,"dx":0.0017,"nx":28,"ny":28,"refTime":"2025-11-11T09:00:00:Z","depth":"2","parameterNumber":2,"parameterNumberName":"U-component_of_CURRENTS"},"data":[0,0,0,0,0,0,0,0,0,0,0,0,0,0,0,0,0,0,0,0,0,0,0,0,0,0,0,0,0,0,0,0,0,0,0,0,0,0,0,0,0,0,0,0,0,0,0,0,0,0,0,0,0,0,0,0,0,0,0.2345,0.2345,0,0.2291,0.229,0.2289,0.2223,0.2222,0.2221,0.2221,0.2161,0.216,0.2159,0,0,0,0,0,0,0,0,0,0,0,0,0,0.2363,0.2363,0.2345,0.2345,0.2344,0.2291,0.229,0.2289,0.2223,0.2222,0.2221,0.222,0.2161,0.216,0.2159,0,0,0,0,0,0,0,0,0,0,0,0,0,0.2333,0.2363,0.2345,0.2308,0.2305,0.2291,0.229,0.2288,0.2223,0.2222,0.2221,0.222,0.2162,0.216,0.2159,0.2169,0,0,0.2154,0.2154,0,0,0,0,0,0,0,0,0.2335,0.2332,0.2314,0.2311,0.2307,0.2266,0.2274,0.225,0.2223,0.2249,0.2221,0.222,0.2199,0.2195,0.2181,0.2166,0.2164,0.2154,0.2153,0.2153,0.2152,0,0,0,0,0,0,0,0.2337,0.2334,0.2319,0.2314,0.231,0.2285,0.2279,0.2269,0.2227,0.2247,0.2243,0.2244,0.2196,0.2182,0.2179,0.2163,0.2154,0.2153,0.2152,0.2151,0.223,0.2232,0,0,0,0,0,0,0.2355,0.2336,0.2321,0.2318,0.2323,0.2286,0.2279,0.2277,0.2227,0.222,0.2245,0.2241,0.2185,0.2181,0.2176,0.2247,0.2153,0.2151,0.215,0.2227,0.223,0.2233,0,0,0,0,0,0,0.2355,0.2354,0.2323,0.2329,0.2324,0.2287,0.2284,0.2276,0.2281,0.2227,0.2218,0.226,0.2184,0.2179,0.2194,0.2242,0.2151,0.2149,0.2223,0.2228,0.2232,0.2349,0,0,0,0,0,0,0.2356,0.2354,0.2374,0.233,0.2325,0.234,0.2286,0.2276,0.2284,0.2278,0.2237,0.2229,0.2183,0.2197,0.2193,0.2238,0.2148,0.2219,0.2225,0.223,0.2341,0.2357,0.237,0,0,0,0,0,0.2357,0.2389,0.2375,0.2375,0.2348,0.2342,0.2338,0.2304,0.2286,0.2302,0.2276,0.2231,0.2229,0.2198,0.2192,0.2238,0.2217,0.2224,0.223,0.2335,0.2354,0.237,0,0,0,0,0,0,0.2425,0.2385,0.2369,0.2392,0.238,0.2333,0.2352,0.2328,0.2318,0.232,0.2261,0.2253,0.2286,0.2255,0.2222,0.2282,0.222,0.2225,0.2301,0.2319,0.2333,0.2377,0.2147,0,0,0,0,0,0.2448,0.245,0.2417,0.2441,0.244,0.2402,0.2402,0.238,0.236,0.2354,0.2326,0.2309,0.2308,0.2307,0.2298,0.2328,0.237,0.2359,0.2373,0.2386,0.2421,0.254,0.2569,0.2255,0.2255,0.2255,0,0,0.2484,0.2463,0.2467,0.2455,0.2441,0.2448,0.2399,0.2413,0.2424,0.2353,0.2374,0.2359,0.233,0.2361,0.2374,0.234,0.25,0.2394,0.2404,0.2434,0.255,0.2581,0.2608,0.226,0.2259,0.2258,0,0,0.2542,0.2538,0.2551,0.2545,0.2535,0.2512,0.2526,0.2499,0.2495,0.2512,0.2473,0.2501,0.2478,0.248,0.2473,0.257,0.2575,0.2563,0.2667,0.2781,0.2809,0.2833,0.2939,0.2972,0.2568,0.2568,0.2568,0,0.26,0.2593,0.2562,0.2573,0.2581,0.2547,0.2573,0.2567,0.2552,0.2577,0.2538,0.2575,0.2541,0.2605,0.2631,0.2604,0.2672,0.2595,0.2803,0.2828,0.2851,0.2953,0.2988,0.2574,0.2574,0.2573,0.2572,0,0.264,0.2653,0.2669,0.2659,0.2671,0.2693,0.2678,0.2705,0.2698,0.2695,0.2765,0.2738,0.2774,0.2759,0.2716,0.2862,0.286,0.2809,0.276,0.289,0.2989,0.3023,0.2584,0.2581,0.2579,0.2578,0,0,0.2736,0.2702,0.2716,0.2724,0.2719,0.2738,0.2778,0.2814,0.2872,0.2873,0.2961,0.2962,0.2981,0.2981,0.2952,0.3029,0.3233,0.2999,0.3002,0.3108,0.3512,0.3239,0.325,0.3229,0.3236,0.3241,0.352,0,0.2786,0.2813,0.2785,0.284,0.2856,0.2852,0.29,0.2938,0.2962,0.3041,0.3058,0.3128,0.3055,0.31,0.3175,0.3211,0.3329,0.3163,0.3368,0.3375,0.3119,0.3281,0.2967,0.3165,0.3553,0.3559,0.3563,0,0.2832,0.2843,0.2898,0.2926,0.2942,0.2989,0.3083,0.312,0.3211,0.324,0.3325,0.3335,0.3456,0.3373,0.3566,0.3471,0.3534,0.3553,0.3563,0.3294,0.3164,0.3096,0.3213,0.362,0.3615,0.3611,0.3607,0,0.2902,0.2926,0.2976,0.2986,0.3023,0.3087,0.3129,0.321,0.3239,0.3405,0.3447,0.3592,0.3646,0.3777,0.3774,0.373,0.3962,0.3904,0.3735,0.3717,0.348,0.3426,0.4106,0.4106,0.4105,0.4104,0.4103,0,0.2936,0.2981,0.3027,0.3066,0.3128,0.3177,0.3274,0.3328,0.3432,0.3484,0.358,0.3626,0.3751,0.3838,0.3894,0.3893,0.4081,0.3805,0.3784,0.3505,0.3454,0.3851,0.3818,0.4115,0.4112,0.411,0.4109,0,0.2942,0.2988,0.3034,0.3122,0.3153,0.3205,0.3273,0.332,0.3465,0.3543,0.3604,0.3701,0.3796,0.3869,0.4045,0.3982,0.4055,0.4016,0.3655,0.3581,0.3731,0.3701,0.393,0.3923,0.3917,0.3912,0.3908,0,0.2907,0.2958,0.3048,0.3056,0.3087,0.3166,0.3188,0.3312,0.3349,0.3543,0.3559,0.3687,0.3652,0.3768,0.374,0.3809,0.3932,0.3552,0.3378,0.3764,0.3722,0.3701,0.3679,0.3159,0.3149,0.3141,0.3134,0,0.2855,0.293,0.297,0.2965,0.2997,0.3003,0.3079,0.3078,0.324,0.3293,0.3343,0.3355,0.3425,0.3255,0.3298,0.3311,0.3505,0.3377,0.3965,0.3173,0.3037,0.2993,0.3,0.3062,0.3069,0.3074,0.3078,0.3081,0.2819,0.2801,0.287,0.2814,0.2849,0.2814,0.2755,0.2812,0.2805,0.281,0.2985,0.2895,0.2955,0.2757,0.2743,0.2771,0.3006,0.2924,0.2952,0.2989,0.277,0.2621,0.2533,0.2537,0.254,0.2543,0.2546,0,0.2684,0.2696,0.2683,0.2642,0.2569,0.2664,0.2638,0.2532,0.2414,0.2447,0.2419,0.2187,0.2068,0.2196,0.2092,0.2116,0.216,0.2072,0.2108,0.2179,0.2243,0.1989,0.1545,0.1542,0.1539,0.1537,0,0,0.264,0.257,0.252,0.2352,0.2341,0.2223,0.2156,0.2022,0.1983,0.1773,0.1703,0.1805,0.1996,0.1664,0.1684,0.1586,0.1869,0.1535,0.233,0.2434,0.2493,0.272,0.2404,0,0,0,0,0]},{"header":{"parameterUnit":"m.s-1","parameterCategory":2,"la1":30.2991,"la2":30.254,"lo1":-89.0895,"lo2":-89.0444,"dy":0.0017,"dx":0.0017,"nx":28,"ny":28,"refTime":"2025-11-11T09:00:00:Z","depth":"2","parameterNumber":3,"parameterNumberName":"V-component_of_CURRENTS"},"data":[0,0,0,0,0,0,0,0,0,0,0,0,0,0,0,0,0,0,0,0,0,0,0,0,0,0,0,0,0,0,0,0,0,0,0,0,0,0,0,0,0,0,0,0,0,0,0,0,0,0,0,0,0,0,0,0,0,0,0.021,0.021,0,0.0179,0.0178,0.0178,0.0108,0.0107,0.0105,0.0104,-0.0019,-0.002,-0.0022,0,0,0,0,0,0,0,0,0,0,0,0,0,0.0178,0.0179,0.021,0.021,0.0209,0.0179,0.0178,0.0178,0.0108,0.0107,0.0105,0.0103,-0.0018,-0.002,-0.0023,0,0,0,0,0,0,0,0,0,0,0,0,0,0.0173,0.0179,0.021,0.0171,0.0168,0.0179,0.0178,0.0178,0.0109,0.0107,0.0104,0.0103,-0.0017,-0.002,-0.0023,-0.0,0,0,-0.0032,-0.0033,0,0,0,0,0,0,0,0,0.0173,0.0174,0.0177,0.0174,0.017,0.0146,0.0122,0.0114,0.0109,0.013,0.0104,0.0102,0.003,0.0023,0.0022,-0.0006,-0.0011,-0.0032,-0.0034,-0.0035,-0.0036,0,0,0,0,0,0,0,0.0174,0.0175,0.0197,0.0177,0.0173,0.0145,0.0142,0.012,0.009,0.0128,0.0123,0.0122,0.0027,0.0025,0.0018,-0.0013,-0.0032,-0.0035,-0.0037,-0.0038,-0.0094,-0.0094,0,0,0,0,0,0,0.0183,0.0176,0.0198,0.0196,0.0167,0.0147,0.0144,0.0155,0.0092,0.0081,0.0123,0.0118,0.0031,0.0022,0.0014,-0.0032,-0.0035,-0.0038,-0.004,-0.0095,-0.0094,-0.0094,0,0,0,0,0,0,0.0183,0.0186,0.0199,0.0184,0.0184,0.015,0.0163,0.0156,0.0119,0.0089,0.0076,0.009,0.0029,0.0018,-0.0019,-0.0035,-0.0039,-0.0042,-0.0095,-0.0094,-0.0094,-0.008,0,0,0,0,0,0,0.0183,0.0187,0.0181,0.0186,0.0185,0.0193,0.0165,0.0156,0.0123,0.0115,0.0057,0.0046,0.0027,-0.0014,-0.0022,-0.0039,-0.0045,-0.0095,-0.0095,-0.0094,-0.0081,-0.0079,-0.0078,0,0,0,0,0,0.0182,0.0186,0.0181,0.0182,0.0185,0.0194,0.019,0.0158,0.0123,0.0115,0.0077,0.0046,-0.0017,-0.0016,-0.0025,-0.0044,-0.0095,-0.0095,-0.0094,-0.0082,-0.008,-0.0078,0,0,0,0,0,0,0.0143,0.018,0.0174,0.0181,0.0182,0.0181,0.0162,0.0145,0.011,0.0085,0.0051,0.0039,0.0002,-0.0017,-0.0015,-0.0056,-0.0062,-0.0063,-0.0049,-0.0048,-0.0046,-0.0055,-0.0047,0,0,0,0,0,0.0142,0.0162,0.0181,0.0177,0.0179,0.0165,0.0155,0.014,0.0119,0.0099,0.006,0.0023,0.0007,-0.002,-0.0038,-0.0063,-0.0071,-0.008,-0.0079,-0.0077,-0.0089,-0.0099,-0.01,-0.0092,-0.0092,-0.0092,0,0,0.0116,0.0143,0.0145,0.0171,0.0163,0.0172,0.0152,0.0135,0.0125,0.0093,0.0043,0.0024,0.0004,-0.0019,-0.0038,-0.0045,-0.008,-0.0076,-0.0075,-0.0088,-0.0099,-0.01,-0.0101,-0.0091,-0.0091,-0.0091,0,0,0.0093,0.0106,0.0119,0.0134,0.0139,0.0146,0.0137,0.0127,0.0099,0.0072,0.005,0.0025,-0.0022,-0.0027,-0.0035,-0.0036,-0.0067,-0.0053,-0.0063,-0.0072,-0.0073,-0.0075,-0.0069,-0.007,-0.0058,-0.0058,-0.0058,0,0.0045,0.0088,0.0115,0.0136,0.0141,0.0134,0.0138,0.0126,0.0097,0.0082,0.0049,0.0004,-0.002,-0.0024,-0.0031,-0.0035,-0.0046,-0.0069,-0.0071,-0.0073,-0.0074,-0.0068,-0.0069,-0.0057,-0.0057,-0.0057,-0.0057,0,0.0055,0.0074,0.0077,0.0116,0.0126,0.0126,0.0134,0.0117,0.008,0.0069,0.0033,0.0009,-0.0019,-0.0026,-0.0038,-0.0054,-0.0059,-0.0063,-0.0077,-0.0074,-0.0068,-0.0069,-0.0056,-0.0056,-0.0057,-0.0057,0,0,-0.0033,0.0065,0.0057,0.0092,0.0117,0.0136,0.0121,0.0126,0.0129,0.007,0.0064,0.0017,-0.001,-0.0021,-0.0035,-0.0052,-0.0066,-0.0075,-0.0076,-0.0073,-0.0087,-0.0078,-0.0078,-0.0081,-0.0082,-0.0082,-0.0072,0,-0.0053,0.0008,0.0052,0.0084,0.0117,0.013,0.0138,0.0139,0.0124,0.0121,0.0075,0.0062,-0.0002,-0.001,-0.0046,-0.0047,-0.0074,-0.0069,-0.0089,-0.009,-0.0084,-0.0081,-0.0065,-0.0055,-0.0074,-0.0074,-0.0074,0,-0.006,-0.0008,0.0033,0.0118,0.0128,0.0144,0.0177,0.0181,0.0182,0.0166,0.0125,0.0099,0.0061,0.0014,-0.0042,-0.0042,-0.0083,-0.0094,-0.0093,-0.0096,-0.0084,-0.0064,-0.0057,-0.0077,-0.0076,-0.0076,-0.0076,0,-0.0092,-0.0022,0.0021,0.0045,0.0129,0.0137,0.0161,0.0181,0.0212,0.0193,0.0217,0.0145,0.0144,0.0057,0.0005,-0.003,-0.0028,-0.0068,-0.0098,-0.0097,-0.0093,-0.0091,-0.0121,-0.0121,-0.0121,-0.0121,-0.0121,0,-0.009,-0.0064,0.0017,0.0042,0.0129,0.014,0.0206,0.0228,0.0247,0.0319,0.0231,0.0292,0.015,0.0137,0.0041,-0.0017,-0.0009,-0.0103,-0.0099,-0.0085,-0.0082,-0.0114,-0.0114,-0.0121,-0.0121,-0.0121,-0.0121,0,-0.0081,-0.0058,0.0038,0.0112,0.0133,0.0207,0.0288,0.0353,0.0324,0.0417,0.0411,0.0405,0.0381,0.0265,0.0186,0.0067,-0.0003,-0.0025,0.0009,0.0015,-0.0083,-0.0082,-0.0092,-0.0092,-0.0092,-0.0092,-0.0091,0,-0.0046,-0.0016,0.0116,0.0199,0.0246,0.0327,0.0406,0.0411,0.0486,0.0524,0.0603,0.0577,0.0627,0.0501,0.0296,0.0127,0.0082,0.001,-0.0074,-0.0088,-0.0083,-0.0082,-0.0081,-0.0053,-0.0052,-0.0052,-0.0052,0,0.0033,0.0067,0.0158,0.0329,0.0439,0.0563,0.0646,0.0723,0.074,0.081,0.0923,0.0943,0.0798,0.0644,0.0373,0.0248,0.0021,0.001,0.0005,-0.0065,-0.0051,-0.0045,-0.0046,-0.0048,-0.0048,-0.0049,-0.0049,-0.0049,0.0113,0.0231,0.0336,0.0497,0.0616,0.0757,0.0851,0.0955,0.1081,0.1147,0.1176,0.1175,0.0937,0.0599,0.0379,0.0095,0.0089,-0.0044,-0.0045,-0.0047,-0.0046,-0.0033,-0.0026,-0.0026,-0.0026,-0.0026,-0.0027,0,0.0285,0.0362,0.0491,0.0673,0.0782,0.0817,0.0983,0.1062,0.1229,0.1311,0.1364,0.1149,0.0956,0.0666,0.0254,0.0019,-0.0017,-0.0063,-0.0068,-0.0069,-0.007,-0.0073,-0.0059,-0.0059,-0.006,-0.0061,0,0,0.0383,0.0535,0.0573,0.0744,0.0836,0.0984,0.1076,0.1214,0.1289,0.1392,0.1367,0.1324,0.1003,0.0694,0.0388,0.0157,0.0092,0.0111,0.0162,0.0192,0.0193,-0.0032,-0.0032,0,0,0,0,0]}],[{"header":{"parameterUnit":"m.s-1","parameterCategory":2,"la1":30.2991,"la2":30.254,"lo1":-89.0895,"lo2":-89.0444,"dy":0.0017,"dx":0.0017,"nx":28,"ny":28,"refTime":"2025-11-11T09:00:00:Z","depth":"4","parameterNumber":2,"parameterNumberName":"U-component_of_CURRENTS"},"data":[0,0,0,0,0,0,0,0,0,0,0,0,0,0,0,0,0,0,0,0,0,0,0,0,0,0,0,0,0,0,0,0,0,0,0,0,0,0,0,0,0,0,0,0,0,0,0,0,0,0,0,0,0,0,0,0,0,0,0.0191,0.0192,0,0.0246,0.0246,0.0247,0.0313,0.0314,0.0315,0.0315,0.0574,0.058,0.0586,0,0,0,0,0,0,0,0,0,0,0,0,0,0.0125,0.0126,0.0191,0.0192,0.0193,0.0246,0.0246,0.0247,0.0312,0.0314,0.0315,0.0316,0.0572,0.0579,0.0586,0,0,0,0,0,0,0,0,0,0,0,0,0,0.0165,0.0127,0.0191,0.0231,0.0235,0.0245,0.0246,0.0247,0.0312,0.0314,0.0315,0.0316,0.057,0.0579,0.0587,0.0614,0,0,0.0615,0.0619,0,0,0,0,0,0,0,0,0.0162,0.0167,0.0225,0.0228,0.0233,0.0273,0.0318,0.038,0.0312,0.0283,0.0315,0.0317,0.0491,0.0507,0.0511,0.0626,0.0637,0.0616,0.0621,0.0625,0.0627,0,0,0,0,0,0,0,0.016,0.0165,0.0213,0.0225,0.023,0.024,0.0247,0.0329,0.0383,0.0286,0.0291,0.0296,0.0495,0.0502,0.0519,0.0641,0.0615,0.0623,0.0629,0.0632,0.1,0.1004,0,0,0,0,0,0,0.0151,0.0163,0.0212,0.0215,0.02,0.024,0.0248,0.0259,0.0378,0.0395,0.0294,0.0298,0.0486,0.0508,0.0528,0.0769,0.0625,0.0633,0.0638,0.0995,0.1001,0.1005,0,0,0,0,0,0,0.015,0.0155,0.0209,0.0189,0.0197,0.024,0.0251,0.026,0.03,0.0381,0.0403,0.033,0.0488,0.0516,0.0653,0.0772,0.0637,0.0645,0.099,0.0997,0.1003,0.1122,0,0,0,0,0,0,0.0148,0.0155,0.0174,0.0189,0.0198,0.0249,0.025,0.026,0.0299,0.0306,0.0419,0.0442,0.0492,0.0639,0.0662,0.0782,0.0652,0.0985,0.0993,0.1001,0.1112,0.1131,0.1148,0,0,0,0,0,0.0145,0.0162,0.0175,0.0182,0.0219,0.025,0.0257,0.0291,0.0299,0.033,0.0418,0.044,0.0709,0.0649,0.0675,0.0801,0.0981,0.0991,0.1,0.1104,0.1128,0.1147,0,0,0,0,0,0,0.0147,0.017,0.0185,0.0211,0.0244,0.0262,0.0295,0.0305,0.0389,0.0421,0.0482,0.0513,0.0688,0.0715,0.0648,0.0931,0.0855,0.087,0.0925,0.0948,0.0965,0.0952,0.066,0,0,0,0,0,0.0154,0.0174,0.0201,0.0226,0.0248,0.0274,0.0295,0.0325,0.0387,0.0423,0.0517,0.0626,0.074,0.0816,0.0918,0.1056,0.1011,0.1158,0.1176,0.119,0.1199,0.1187,0.1202,0.1038,0.1038,0.1037,0,0,0.0159,0.0176,0.0188,0.0228,0.0259,0.0303,0.0293,0.0348,0.0419,0.0445,0.0606,0.0695,0.0789,0.0962,0.1044,0.1006,0.122,0.1203,0.1215,0.1215,0.1198,0.1213,0.1227,0.1044,0.1043,0.1042,0,0,0.018,0.0204,0.0235,0.0273,0.0331,0.0347,0.0368,0.0436,0.0511,0.0652,0.0707,0.0846,0.1025,0.1117,0.1179,0.1347,0.131,0.1411,0.1503,0.1492,0.1503,0.1513,0.1482,0.1488,0.1424,0.1424,0.1424,0,0.0194,0.0236,0.0251,0.0304,0.0339,0.0369,0.0423,0.0498,0.0617,0.0706,0.0735,0.1006,0.1096,0.1271,0.1364,0.139,0.1363,0.141,0.1509,0.1518,0.1526,0.1491,0.1496,0.1431,0.143,0.1429,0.1429,0,0.0245,0.0293,0.0321,0.039,0.0425,0.0485,0.0568,0.066,0.0754,0.085,0.1073,0.1189,0.1339,0.142,0.1464,0.1605,0.1561,0.1522,0.1439,0.1548,0.1507,0.151,0.1441,0.1438,0.1436,0.1435,0,0,0.0246,0.0338,0.0353,0.0399,0.0485,0.0514,0.0643,0.0772,0.0883,0.1055,0.1197,0.1441,0.151,0.1583,0.1652,0.1687,0.1748,0.1659,0.1655,0.1601,0.1714,0.1652,0.1648,0.1721,0.1722,0.1724,0.1662,0,0.0295,0.0384,0.0419,0.0511,0.0565,0.063,0.074,0.0871,0.1019,0.1179,0.133,0.1498,0.1568,0.1651,0.1712,0.1733,0.1763,0.1768,0.164,0.1637,0.1545,0.1652,0.1728,0.1663,0.1664,0.1664,0.1664,0,0.0341,0.0396,0.0484,0.0584,0.0616,0.0683,0.0838,0.0951,0.117,0.1286,0.146,0.1566,0.1707,0.1708,0.1786,0.1786,0.1782,0.1776,0.1771,0.1671,0.1581,0.1534,0.1668,0.1668,0.1667,0.1667,0.1667,0,0.0326,0.0438,0.05,0.0539,0.0659,0.0736,0.0819,0.102,0.1147,0.1345,0.1433,0.1605,0.1673,0.1703,0.1769,0.1766,0.1794,0.1751,0.1682,0.1675,0.1687,0.1677,0.1776,0.1776,0.1776,0.1776,0.1776,0,0.0353,0.0409,0.0511,0.0557,0.0671,0.0752,0.0938,0.1031,0.1211,0.1348,0.1492,0.1586,0.1676,0.1732,0.1757,0.1744,0.1771,0.1717,0.1669,0.1742,0.174,0.1688,0.1678,0.1774,0.1774,0.1775,0.1775,0,0.0327,0.039,0.0477,0.0613,0.0672,0.076,0.0979,0.1082,0.1243,0.1391,0.143,0.1569,0.163,0.171,0.1737,0.1705,0.1695,0.1678,0.1761,0.1714,0.1576,0.1574,0.1561,0.1559,0.1557,0.1555,0.1554,0,0.0319,0.0349,0.0508,0.0588,0.0667,0.0836,0.0926,0.1084,0.1174,0.1378,0.1384,0.1518,0.1613,0.159,0.167,0.1673,0.1675,0.1612,0.1619,0.1607,0.1561,0.1562,0.1563,0.1551,0.155,0.1549,0.1549,0,0.0277,0.0333,0.0427,0.0608,0.0707,0.0811,0.0955,0.1007,0.115,0.1283,0.1344,0.1418,0.149,0.154,0.1568,0.1573,0.1619,0.1591,0.1594,0.16,0.1593,0.155,0.1553,0.1542,0.1543,0.1544,0.1544,0,0.0268,0.0326,0.0462,0.0627,0.072,0.075,0.0855,0.0934,0.1019,0.1195,0.1212,0.1358,0.1468,0.1489,0.1516,0.1527,0.1504,0.1417,0.1429,0.1438,0.1439,0.1415,0.1283,0,0,0,0,0,0.0262,0.0346,0.0472,0.0619,0.0694,0.0737,0.0828,0.0907,0.1025,0.1018,0.1131,0.1206,0.1292,0.136,0.1352,0.1468,0.1503,0.1448,0.1406,0.1503,0.1511,0.1531,0,0,0,0,0,0,0.0266,0.0388,0.0458,0.0547,0.063,0.0661,0.0694,0.0768,0.0801,0.0945,0.1001,0.1113,0.1217,0.1296,0.1327,0.1348,0.1288,0.154,0.1536,0.1498,0.1506,0.1512,0.1536,0,0,0,0,0]},{"header":{"parameterUnit":"m.s-1","parameterCategory":2,"la1":30.2991,"la2":30.254,"lo1":-89.0895,"lo2":-89.0444,"dy":0.0017,"dx":0.0017,"nx":28,"ny":28,"refTime":"2025-11-11T09:00:00:Z","depth":"4","parameterNumber":3,"parameterNumberName":"V-component_of_CURRENTS"},"data":[0,0,0,0,0,0,0,0,0,0,0,0,0,0,0,0,0,0,0,0,0,0,0,0,0,0,0,0,0,0,0,0,0,0,0,0,0,0,0,0,0,0,0,0,0,0,0,0,0,0,0,0,0,0,0,0,0,0,0.0361,0.0361,0,0.0323,0.0322,0.0321,0.0343,0.0345,0.0346,0.0347,0.0329,0.0328,0.0326,0,0,0,0,0,0,0,0,0,0,0,0,0,0.0391,0.039,0.0361,0.0361,0.0361,0.0323,0.0322,0.0321,0.0343,0.0345,0.0346,0.0348,0.033,0.0328,0.0326,0,0,0,0,0,0,0,0,0,0,0,0,0,0.0365,0.039,0.0361,0.0369,0.0369,0.0323,0.0322,0.0321,0.0343,0.0345,0.0347,0.0348,0.033,0.0328,0.0325,0.0271,0,0,0.0318,0.0317,0,0,0,0,0,0,0,0,0.0367,0.0364,0.0368,0.0368,0.0369,0.0342,0.0326,0.0306,0.0342,0.035,0.0347,0.0349,0.0335,0.0333,0.0317,0.027,0.0269,0.0317,0.0316,0.0315,0.0314,0,0,0,0,0,0,0,0.0369,0.0365,0.0344,0.0368,0.0368,0.0353,0.0351,0.0321,0.0331,0.035,0.0352,0.0351,0.0336,0.032,0.0317,0.0269,0.0317,0.0315,0.0314,0.0313,0.0255,0.0254,0,0,0,0,0,0,0.0379,0.0367,0.0345,0.0343,0.0375,0.0351,0.0349,0.0347,0.0331,0.0331,0.0349,0.0352,0.0323,0.032,0.0317,0.0372,0.0315,0.0312,0.0311,0.0255,0.0255,0.0254,0,0,0,0,0,0,0.038,0.0377,0.0347,0.0356,0.0352,0.0349,0.0345,0.0345,0.0347,0.0331,0.0331,0.0354,0.0324,0.032,0.0303,0.0367,0.0311,0.0309,0.0255,0.0255,0.0254,0.0404,0,0,0,0,0,0,0.0381,0.0378,0.0389,0.0357,0.0352,0.0329,0.0343,0.0343,0.0343,0.0347,0.0334,0.0334,0.0326,0.0307,0.0301,0.0362,0.0307,0.0255,0.0255,0.0255,0.0399,0.0409,0.0418,0,0,0,0,0,0.0382,0.0386,0.0389,0.0388,0.0364,0.0329,0.0324,0.0327,0.0342,0.0337,0.0332,0.0335,0.0304,0.0304,0.0297,0.036,0.0255,0.0255,0.0255,0.0395,0.0407,0.0418,0,0,0,0,0,0,0.0405,0.0387,0.0391,0.0391,0.0368,0.0334,0.0345,0.033,0.0319,0.0343,0.032,0.0318,0.033,0.0299,0.03,0.0335,0.0284,0.0283,0.0394,0.0405,0.0414,0.0476,0.0305,0,0,0,0,0,0.0414,0.0417,0.0388,0.039,0.0389,0.0366,0.0359,0.0356,0.0338,0.0337,0.0337,0.033,0.0317,0.0325,0.0303,0.0312,0.0242,0.0345,0.0355,0.0364,0.0404,0.0299,0.0303,0.0254,0.0254,0.0254,0,0,0.0429,0.0417,0.0422,0.0396,0.0392,0.0383,0.0367,0.0367,0.0378,0.0335,0.0372,0.0355,0.0317,0.0342,0.0347,0.0334,0.0336,0.0363,0.0372,0.0408,0.0299,0.0304,0.0309,0.0254,0.0254,0.0254,0,0,0.0453,0.0449,0.0464,0.0452,0.0445,0.0412,0.0413,0.0399,0.0422,0.043,0.0412,0.0423,0.0413,0.041,0.0401,0.0433,0.0375,0.0439,0.0562,0.0459,0.0463,0.0466,0.0374,0.0367,0.0461,0.0461,0.0462,0,0.0477,0.0493,0.046,0.0474,0.048,0.0428,0.0446,0.0438,0.0425,0.0474,0.0468,0.0478,0.0449,0.0473,0.0516,0.0463,0.0399,0.0533,0.0475,0.0476,0.0477,0.0381,0.0372,0.0469,0.0468,0.0467,0.0466,0,0.0518,0.0537,0.0548,0.0545,0.0526,0.0539,0.0516,0.0526,0.0547,0.0578,0.0634,0.059,0.0614,0.0604,0.059,0.0603,0.0553,0.0487,0.0459,0.0491,0.0387,0.0375,0.0479,0.0476,0.0474,0.0472,0,0,0.0565,0.0579,0.0586,0.0608,0.0583,0.0565,0.0586,0.0612,0.0675,0.0691,0.0766,0.0779,0.0808,0.0796,0.0759,0.0706,0.0655,0.0644,0.0634,0.0576,0.0445,0.0446,0.0431,0.0585,0.0584,0.0583,0.0368,0,0.0622,0.0666,0.0648,0.0677,0.0703,0.067,0.0697,0.0719,0.0762,0.0817,0.0818,0.0857,0.086,0.0875,0.084,0.0686,0.0633,0.0721,0.0403,0.0394,0.041,0.0421,0.058,0.0358,0.0355,0.0353,0.0352,0,0.067,0.0702,0.0756,0.0782,0.0794,0.0806,0.0853,0.0871,0.0935,0.0974,0.1034,0.1024,0.0998,0.0946,0.0767,0.0829,0.0688,0.0556,0.0541,0.0495,0.0375,0.0315,0.0328,0.033,0.0332,0.0334,0.0335,0,0.0719,0.0763,0.081,0.0823,0.0844,0.0895,0.091,0.0978,0.1016,0.1073,0.1085,0.1092,0.1019,0.0889,0.0704,0.0724,0.0449,0.0401,0.0263,0.0259,0.0256,0.0255,0.0256,0.0256,0.0256,0.0257,0.0258,0,0.0765,0.0808,0.0859,0.09,0.0975,0.0983,0.1101,0.1101,0.115,0.1184,0.1189,0.1153,0.0997,0.0846,0.0703,0.0466,0.0435,0.0305,0.0213,0.032,0.0329,0.0246,0.0248,0.0249,0.0251,0.0252,0.0254,0,0.079,0.0818,0.088,0.0965,0.1002,0.1057,0.116,0.121,0.1256,0.1259,0.1248,0.1151,0.096,0.0795,0.0508,0.0415,0.0197,0.0107,0.0249,0.0163,0.0079,0.009,-0.0053,-0.0055,-0.0056,-0.0057,-0.0058,0,0.0789,0.0824,0.0936,0.0953,0.1003,0.1121,0.1169,0.1244,0.1273,0.1245,0.1187,0.1041,0.0966,0.058,0.042,0.014,0.0099,-0.0011,0.0072,0.0128,0.0051,0.0065,0.0078,-0.006,-0.006,-0.0061,-0.0061,0,0.0771,0.0822,0.0896,0.0966,0.1013,0.1086,0.1179,0.1204,0.1237,0.1259,0.1126,0.0991,0.0762,0.055,0.0328,0.0133,0.0081,-0.0026,-0.0024,0.0053,0.0117,0.0046,0.006,-0.0065,-0.0065,-0.0064,-0.0064,0,0.0761,0.0801,0.0885,0.0934,0.098,0.101,0.1101,0.1114,0.1149,0.1122,0.107,0.0893,0.08,0.0539,0.034,0.0163,0.0127,0.0075,0.0071,0.0074,0.0206,0.0312,0.0125,0,0,0,0,0,0.0726,0.0767,0.0811,0.0874,0.092,0.0953,0.1038,0.1115,0.1173,0.1056,0.1084,0.0892,0.0627,0.0522,0.0338,0.0312,0.0092,0.0092,0.003,-0.009,-0.0085,0.0053,0,0,0,0,0,0,0.0693,0.0765,0.0805,0.0802,0.083,0.0879,0.0936,0.0979,0.0963,0.0994,0.0855,0.0833,0.0575,0.0711,0.0322,0.0276,0.021,-0.0012,-0.0016,-0.0093,-0.0089,-0.0084,0.006,0,0,0,0,0]}]]